• în România
  • Lista ţărilor
  • Pe 7 zile
  • Temperatura apei
  • Hartă satelitară
  • Meteo pe hartă
  • Widget-uri
  • user-avatar
    Intrare

    Meteo pe oră la Dremuchevo

    Astăzi, 13 Noiembrie, Marţi

    Timp Temperatura Precipitaţii Vânt Presiune Umiditate
    00:00 -7°C° 0 mm 5 m/s 760 mmHg 50%
    01:00 -7°C° 0 mm 5 m/s 759 mmHg 51%
    02:00 -8°C° 0 mm 6 m/s 759 mmHg 51%
    03:00 -8°C° 0 mm 6 m/s 758 mmHg 51%
    04:00 -6°C° 0 mm 6 m/s 758 mmHg 51%
    05:00 -6°C° 0 mm 6 m/s 758 mmHg 52%
    06:00 -6°C° 0 mm 6 m/s 757 mmHg 51%
    07:00 -6°C° 0 mm 6 m/s 757 mmHg 51%
    08:00 -7°C° 0 mm 7 m/s 756 mmHg 50%
    09:00 -7°C° 0.1 mm 7 m/s 756 mmHg 51%
    10:00 -6°C° 0.1 mm 7 m/s 755 mmHg 52%
    11:00 -6°C° 0.1 mm 7 m/s 755 mmHg 54%
    12:00 -4°C° 0.1 mm 7 m/s 754 mmHg 54%
    13:00 -4°C° 0.1 mm 7 m/s 754 mmHg 54%
    14:00 -6°C° 0 mm 7 m/s 753 mmHg 61%
    15:00 -4°C° 0.1 mm 7 m/s 752 mmHg 58%
    16:00 -4°C° 0.1 mm 7 m/s 752 mmHg 55%
    17:00 -3°C° 0.1 mm 7 m/s 752 mmHg 52%
    18:00 -3°C° 0 mm 7 m/s 751 mmHg 53%
    19:00 -3°C° 0 mm 7 m/s 751 mmHg 55%
    20:00 -3°C° 0 mm 7 m/s 751 mmHg 57%
    21:00 -4°C° 0.4 mm 6 m/s 750 mmHg 64%
    22:00 -4°C° 0.4 mm 6 m/s 750 mmHg 72%
    23:00 -4°C° 0.4 mm 6 m/s 750 mmHg 80%

    Mâine, 14 Noiembrie, Miercuri

    Timp Temperatura Precipitaţii Vânt Presiune Umiditate
    00:00 -4°C° 0.6 mm 6 m/s 750 mmHg 78%
    01:00 -4°C° 0.6 mm 6 m/s 749 mmHg 76%
    02:00 -4°C° 0.6 mm 5 m/s 749 mmHg 75%
    03:00 -4°C° 0.2 mm 5 m/s 749 mmHg 74%
    04:00 -4°C° 0.2 mm 5 m/s 748 mmHg 74%
    05:00 -4°C° 0.2 mm 5 m/s 748 mmHg 73%
    06:00 -5°C° 0.6 mm 5 m/s 748 mmHg 78%
    07:00 -4°C° 0.6 mm 4 m/s 748 mmHg 82%
    08:00 -4°C° 0.6 mm 4 m/s 748 mmHg 87%
    09:00 -4°C° 0.5 mm 4 m/s 748 mmHg 88%
    10:00 -4°C° 0.5 mm 4 m/s 749 mmHg 88%
    11:00 -4°C° 0.5 mm 4 m/s 749 mmHg 89%
    12:00 -4°C° 0.5 mm 4 m/s 749 mmHg 89%
    13:00 -4°C° 0.5 mm 3 m/s 749 mmHg 90%
    14:00 -4°C° 0.5 mm 3 m/s 749 mmHg 90%
    15:00 -4°C° 0.3 mm 3 m/s 750 mmHg 90%
    16:00 -4°C° 0.3 mm 3 m/s 750 mmHg 90%
    17:00 -4°C° 0.3 mm 3 m/s 750 mmHg 90%
    18:00 -3°C° 0.2 mm 2 m/s 751 mmHg 90%
    19:00 -3°C° 0.2 mm 2 m/s 751 mmHg 91%
    20:00 -3°C° 0.2 mm 2 m/s 751 mmHg 91%
    21:00 -3°C° 0.2 mm 2 m/s 752 mmHg 91%
    22:00 -3°C° 0.2 mm 2 m/s 752 mmHg 91%
    23:00 -3°C° 0.2 mm 2 m/s 752 mmHg 91%

    Poimâine, 15 Noiembrie, Joi

    Timp Temperatura Precipitaţii Vânt Presiune Umiditate
    00:00 -3°C° 0.2 mm 2 m/s 753 mmHg 91%
    01:00 -3°C° 0.2 mm 2 m/s 753 mmHg 91%
    02:00 -4°C° 0.2 mm 2 m/s 754 mmHg 90%
    03:00 -2°C° 0.1 mm 1 m/s 754 mmHg 90%
    04:00 -2°C° 0.1 mm 1 m/s 754 mmHg 90%
    05:00 -2°C° 0.1 mm 1 m/s 754 mmHg 90%
    06:00 -2°C° 0.1 mm 1 m/s 755 mmHg 90%
    07:00 -2°C° 0.1 mm 1 m/s 755 mmHg 89%
    08:00 -2°C° 0.1 mm 1 m/s 756 mmHg 89%
    09:00 -2°C° 0 mm 1 m/s 756 mmHg 88%
    10:00 -1°C° 0 mm 1 m/s 757 mmHg 86%
    11:00 0°C° 0 mm 1 m/s 757 mmHg 84%
    12:00 -1°C° 0 mm 1 m/s 757 mmHg 86%
    13:00 -1°C° 0 mm 1 m/s 757 mmHg 87%
    14:00 -1°C° 0 mm 1 m/s 758 mmHg 89%
    15:00 -1°C° 0 mm 1 m/s 758 mmHg 90%
    16:00 -2°C° 0 mm 1 m/s 758 mmHg 92%
    17:00 -3°C° 0 mm 1 m/s 759 mmHg 94%
    18:00 -3°C° 0 mm 1 m/s 759 mmHg 94%
    19:00 -3°C° 0 mm 1 m/s 759 mmHg 94%
    20:00 -3°C° 0 mm 1 m/s 759 mmHg 95%
    21:00 -3°C° 0 mm 1 m/s 760 mmHg 95%
    22:00 -4°C° 0 mm 1 m/s 760 mmHg 95%
    23:00 -6°C° 0 mm 2 m/s 760 mmHg 96%

    16 Noiembrie, Vineri

    Timp Temperatura Precipitaţii Vânt Presiune Umiditate
    00:00 -6°C° 0 mm 2 m/s 760 mmHg 96%
    01:00 -6°C° 0 mm 2 m/s 760 mmHg 96%
    02:00 -5°C° 0 mm 2 m/s 761 mmHg 96%
    03:00 -5°C° 0 mm 2 m/s 761 mmHg 96%
    04:00 -5°C° 0 mm 2 m/s 761 mmHg 96%
    05:00 -5°C° 0 mm 2 m/s 761 mmHg 95%
    06:00 -5°C° 0 mm 2 m/s 761 mmHg 95%
    07:00 -4°C° 0 mm 2 m/s 761 mmHg 95%
    08:00 -5°C° 0 mm 3 m/s 761 mmHg 95%
    09:00 -4°C° 0 mm 3 m/s 761 mmHg 93%
    10:00 -2°C° 0 mm 3 m/s 761 mmHg 90%
    11:00 -1°C° 0 mm 3 m/s 761 mmHg 88%
    12:00 -1°C° 0 mm 3 m/s 761 mmHg 89%
    13:00 -1°C° 0 mm 3 m/s 761 mmHg 89%
    14:00 -1°C° 0 mm 3 m/s 761 mmHg 89%
    15:00 -1°C° 0 mm 3 m/s 760 mmHg 90%
    16:00 -1°C° 0 mm 3 m/s 760 mmHg 91%
    17:00 -1°C° 0 mm 3 m/s 760 mmHg 92%
    18:00 -1°C° 0.1 mm 3 m/s 760 mmHg 93%
    19:00 -1°C° 0.1 mm 3 m/s 760 mmHg 93%
    20:00 -1°C° 0.1 mm 3 m/s 760 mmHg 93%
    21:00 -1°C° 0.1 mm 3 m/s 759 mmHg 94%
    22:00 -1°C° 0.1 mm 3 m/s 759 mmHg 94%
    23:00 -1°C° 0.1 mm 3 m/s 759 mmHg 94%

    17 Noiembrie, Sâmbătă

    Timp Temperatura Precipitaţii Vânt Presiune Umiditate
    00:00 -1°C° 0.1 mm 3 m/s 759 mmHg 95%
    01:00 0°C° 0.1 mm 3 m/s 759 mmHg 95%
    02:00 0°C° 0.1 mm 3 m/s 758 mmHg 95%
    03:00 0°C° 0.1 mm 3 m/s 758 mmHg 96%
    04:00 0°C° 0.1 mm 3 m/s 757 mmHg 96%
    05:00 0°C° 0.1 mm 3 m/s 757 mmHg 96%
    06:00 0°C° 0 mm 3 m/s 756 mmHg 96%
    07:00 0°C° 0 mm 3 m/s 756 mmHg 97%
    08:00 0°C° 0 mm 3 m/s 755 mmHg 97%
    09:00 +1°C° 0 mm 3 m/s 755 mmHg 96%
    10:00 0°C° 0 mm 4 m/s 754 mmHg 95%
    11:00 0°C° 0 mm 4 m/s 753 mmHg 95%
    12:00 0°C° 0.1 mm 4 m/s 753 mmHg 95%
    13:00 0°C° 0.1 mm 4 m/s 752 mmHg 95%
    14:00 0°C° 0.1 mm 4 m/s 751 mmHg 95%
    15:00 0°C° 0.1 mm 4 m/s 750 mmHg 95%
    16:00 0°C° 0.1 mm 4 m/s 750 mmHg 96%
    17:00 +1°C° 0.1 mm 3 m/s 749 mmHg 96%
    18:00 +1°C° 0.1 mm 3 m/s 748 mmHg 96%
    19:00 +1°C° 0.1 mm 3 m/s 748 mmHg 96%
    20:00 +1°C° 0.1 mm 3 m/s 747 mmHg 96%
    21:00 +1°C° 0 mm 3 m/s 746 mmHg 96%
    22:00 +1°C° 0 mm 3 m/s 746 mmHg 96%
    23:00 +1°C° 0 mm 3 m/s 745 mmHg 96%

    18 Noiembrie, Duminică

    Timp Temperatura Precipitaţii Vânt Presiune Umiditate
    00:00 +1°C° 0.2 mm 3 m/s 745 mmHg 96%
    01:00 +1°C° 0.2 mm 3 m/s 745 mmHg 96%
    02:00 0°C° 0.2 mm 3 m/s 744 mmHg 96%
    03:00 +1°C° 0.2 mm 2 m/s 744 mmHg 96%
    04:00 +1°C° 0.2 mm 2 m/s 744 mmHg 96%
    05:00 +1°C° 0.2 mm 2 m/s 744 mmHg 96%
    06:00 0°C° 0.2 mm 3 m/s 744 mmHg 96%
    07:00 0°C° 0.2 mm 3 m/s 745 mmHg 95%
    08:00 +1°C° 0.2 mm 3 m/s 745 mmHg 95%
    09:00 +1°C° 0.1 mm 3 m/s 745 mmHg 94%
    10:00 +1°C° 0.1 mm 3 m/s 746 mmHg 94%
    11:00 0°C° 0.1 mm 4 m/s 747 mmHg 93%
    12:00 0°C° 0.1 mm 4 m/s 747 mmHg 93%
    13:00 0°C° 0.1 mm 4 m/s 748 mmHg 93%
    14:00 0°C° 0.1 mm 4 m/s 748 mmHg 92%
    15:00 0°C° 0.2 mm 4 m/s 749 mmHg 92%
    16:00 0°C° 0.2 mm 4 m/s 749 mmHg 91%
    17:00 0°C° 0.2 mm 4 m/s 750 mmHg 91%
    18:00 0°C° 0.2 mm 4 m/s 750 mmHg 91%
    19:00 -1°C° 0.2 mm 4 m/s 751 mmHg 90%
    20:00 -1°C° 0.2 mm 4 m/s 751 mmHg 90%
    21:00 -1°C° 0.1 mm 4 m/s 752 mmHg 90%
    22:00 -1°C° 0.1 mm 4 m/s 752 mmHg 90%
    23:00 -1°C° 0.1 mm 4 m/s 753 mmHg 90%
    Arată mai mult